www.pogodaiklimat.ru

Погода и климат >> Архив погоды >> Франция >> Динар


ПОГОДА в Динаре

  • Прогноз погоды в Динаре
  • Монитор погоды в Динаре

АРХИВ ПОГОДЫ в Динаре

Время (UTC), дата Ветер
(напр.,м/с)
 
Видим.   Явления Облачность Т
(С)
Тd
(С)
f
(%)
Тe
(С)
Тes
(С)
Комфортность P
(гПа)
Po
(гПа)
Тmin
(С)
Tmax
(С)
R
(мм)
R24
(мм)
S
(см)
22 13.06 Ю 2 60 км н/о +10.7 +8.8 88 +10 +10 1011.8 1004.0
23 13.06 Ю 2 60 км 10/10 1500 м
[]
+10.9 +9.2 89 +10 +10 1012.0 1004.2
00 14.06 Ю 2
{5}
50 км н/о +9.8 +8.6 92 +9 +9 1012.3 1004.4 0
01 14.06 ЮЗ 2 45 км н/о +10.3 +9.1 92 +9 +9 1012.2 1004.3
02 14.06 ЮЗ 2 35 км н/о +9.9 +8.8 93 +9 +9 1011.9 1004.0
03 14.06 ЮЗ 2
{5}
40 км н/о +9.5 +8.7 95 +8 +8 1011.7 1003.8 0.2 0
04 14.06 ЮЗ 2 35 км н/о +9.3 +8.7 96 +8 +8 1011.7 1003.8
05 14.06 ЮЗ 2 35 км н/о +10.6 +9.5 93 +9 +9 1012.1 1004.3
06 14.06 ЮЗ 2
{7}
35 км н/о +12.5 +10.4 87 +12 +12 1012.4 1004.6 +8.9 +16.0 0.2 0
07 14.06 ЮЗ 3 35 км н/о +13.9 +10.7 81 +13 +13 1012.5 1004.7
08 14.06 ЮЗ 3 40 км н/о +15.8 +11.2 74 +15 +15 1012.5 1004.8
09 14.06 ЮЗ 3
{10}
55 км н/о +16.4 +10.0 66 +16 +16 1012.9 1005.2 0
10 14.06 ЮЗ 3 60 км н/о +18.6 +11.2 62 +19 +19 1012.5 1004.9
11 14.06 ЮЗ 3 50 км 9/6 1230 м
[]
+17.7 +10.6 63 +18 +22 1012.4 1004.7
12 14.06 ЮЗ 3
{9}
55 км 10/10 1000 м
[]
+18.1 +10.7 62 +19 +24 1012.4 1004.8 0
13 14.06 ЮЗ 2 55 км 9/9 2000 м
[]
+18.8 +11.4 62 +20 +22 1012.4 1004.8
14 14.06 ЮЗ 2 60 км 10/5 1110 м
[]
+18.0 +11.5 66 +19 +23 1012.2 1004.6 0.0
15 14.06 З 1
{7}
55 км 10/10 1000 м
[]
+19.0 +10.8 59 +21 +27 комфорт 1011.9 1004.3 0.0 0
16 14.06 С 2 45 км 10/9 1140 м
[]
+17.9 +11.2 65 +19 +19 1012.0 1004.4
17 14.06 СЗ 2 45 км 9/9 1200 м
[]
+17.8 +10.4 62 +18 +19 1011.9 1004.3
18 14.06 С 2
{9}
19 км н/о +16.4 +11.3 72 +17 +17 1012.4 1004.7 +12.5 +20.4 0
19 14.06 СВ 1 19 км н/о +14.7 +11.5 81 +15 +15 1012.6 1004.9
20 14.06 В 1 15 км н/о +13.9 +12.1 89 +15 +15 1013.0 1005.2
21 14.06 Ю 1
{3}
17 км н/о +12.7 +11.3 91 +13 +13 1013.5 1005.7 0
22 14.06 ЮЗ 2 50 км н/о +12.1 +10.0 87 +11 +11 1013.8 1006.0
23 14.06 ЮЗ 2 19 км н/о +10.9 +9.3 90 +10 +10 1013.8 1006.0
00 15.06 Ю 2
{4}
45 км 10/0 2000 м
[]
+11.0 +9.6 91 +10 +10 1013.7 1005.9 0
01 15.06 Ю 2 18 км 10/10 2000 м
[]
+11.3 +9.9 91 +10 +10 1013.6 1005.8
02 15.06 Ю 2 18 км 10/10 2000 м
[]
+11.8 +10.2 90 +11 +11 1013.6 1005.8
03 15.06 Ю 2
{6}
18 км 10/10 300 м
[]
+11.7 +10.4 92 +10 +10 1013.3 1005.5 0.0 0
04 15.06 ЮЗ 2 35 км 10/10 1500 м
[]
+12.0 +10.6 91 +11 +11 1013.6 1005.8 0.0
05 15.06 Ю 2 40 км н/о +11.9 +10.3 90 +11 +11 1013.8 1006.0 0.2
06 15.06 Ю 2
{6}
19 км н/о +12.8 +11.2 90 +12 +12 1013.9 1006.1 +10.3 +16.4 0.2 0
07 15.06 Ю 3 30 км 8/6 450 м
[]
+14.6 +11.0 79 +14 +15 1014.2 1006.5
08 15.06 ЮЗ 4 30 км 10/6 630 м
[]
+14.8 +10.6 76 +14 +15 1014.4 1006.7
09 15.06 ЮЗ 4
{11}
40 км 10/10 600 м
[]
+15.4 +10.4 72 +15 +16 1014.7 1007.0 0.0 0
10 15.06 Ю 3 19 км 10/4 480 м
[]
+15.5 +11.3 76 +15 +18 1014.9 1007.2 0.0
11 15.06 ЮЗ 3 55 км 10/8 750 м
[]
+16.0 +12.4 79 +16 +17 1015.1 1007.4 0.0
12 15.06 Ю 4
{14}
7000 м 10/10 300 м
[]
+16.7 +12.6 77 +16 +16 1015.2 1007.5 0.0 0
13 15.06 Ю 3 35 км 10/10 660 м
[]
+16.6 +12.7 78 +16 +16 1014.9 1007.2
14 15.06 ЮЗ 4 16 км 10/4 600 м
[]
+16.6 +13.7 83 +16 +20 1015.0 1007.3 0.2
15 15.06 Ю 4
{13}
18 км 8/8 300 м
[]
+17.2 +14.1 82 +17 +18 1015.2 1007.5 0.4 0
16 15.06 ЮЗ 4 19 км 9/6 660 м
[]
+17.8 +13.5 76 +18 +19 1015.3 1007.6
17 15.06 ЮЗ 4 17 км 9/9 400 м
[]
+17.0 +14.5 85 +17 +17 1015.3 1007.6 2
18 15.06 ЮЗ 4
{12}
30 км 8/8 600 м
[]
+16.9 +13.2 79 +17 +17 1015.6 1007.9 +12.8 +18.3 2 0
19 15.06 ЮЗ 3 40 км 10/5 570 м
[]
+15.7 +13.0 84 +15 +15 1016.1 1008.4
20 15.06 ЮЗ 3 15 км слаб. дождь 10/4 450 м
[]
+14.9 +12.9 88 +14 +14 1016.4 1008.6 0.2
21 15.06 ЮЗ 3
{10}
11 км 10/10 100 м
[]
+14.7 +12.9 89 +14 +14 1017.3 1009.5 0.2 0
22 15.06 ЮЗ 3 30 км н/о +14.1 +12.3 89 +13 +13 1017.6 1009.8
23 15.06 ЮЗ 2 35 км н/о +13.6 +12.0 90 +13 +13 1017.9 1010.1
00 16.06 ЮЗ 2
{7}
30 км 9/9 300 м
[]
+13.7 +12.1 90 +13 +13 1018.2 1010.4 0
01 16.06 ЮЗ 2 35 км 10/10 570 м
[]
+13.8 +12.0 89 +13 +13 1018.5 1010.7
02 16.06 ЮЗ 2 30 км 9/8 870 м
[]
+13.4 +12.0 91 +13 +13 1018.3 1010.5
03 16.06 Ю 3
{8}
26 км 10/10 300 м
[]
+13.6 +12.0 90 +13 +13 1018.1 1010.3 0
04 16.06 Ю 2 25 км 10/6 420 м
[]
+13.7 +12.1 90 +13 +13 1018.3 1010.5
05 16.06 Ю 3 27 км 9/4 720 м
[]
+13.8 +12.2 90 +13 +13 1018.6 1010.8
06 16.06 ЮЗ 3
{9}
45 км 8/8 300 м
[]
+15.0 +12.5 85 +14 +15 1018.9 1011.1 +13.3 +16.8 0.2 0
07 16.06 ЮЗ 3 35 км 10/9 450 м
[]
+15.5 +12.8 84 +15 +15 1019.6 1011.8
08 16.06 ЮЗ 3 30 км 10/9 540 м
[]
+16.9 +13.4 80 +17 +17 1019.8 1012.1
09 16.06 ЮЗ 4
{10}
50 км 9/9 600 м
[]
+17.6 +12.1 70 +17 +18 1019.8 1012.1 0
10 16.06 Ю 3 19 км 9/9 840 м
[]
+19.5 +13.2 67 +21 +22 комфорт 1019.8 1012.1
11 16.06 ЮЗ 4 35 км 10/1 1000 м
[]
+19.3 +11.6 61 +20 +26 1020.0 1012.3
12 16.06 ЮЗ 3
{13}
50 км 10/10 1000 м
[]
+19.3 +11.6 61 +21 +27 комфорт 1020.0 1012.3 0
13 16.06 ЮЗ 3 45 км 10/6 930 м
[]
+18.5 +12.3 67 +19 +23 1020.2 1012.5
14 16.06 ЮЗ 2 40 км 10/10 1000 м
[]
+17.7 +12.2 70 +18 +18 1020.2 1012.5
15 16.06 Ю 3
{9}
40 км 9/9 1000 м
[]
+19.5 +12.7 65 +21 +22 комфорт 1019.9 1012.2 0
16 16.06 ЮЗ 3 40 км 9/9 1500 м
[]
+19.0 +10.5 58 +20 +21 1019.9 1012.2
17 16.06 ЮЗ 3 40 км 10/10 1470 м
[]
+18.0 +11.5 66 +18 +18 1020.0 1012.3
18 16.06 ЮЗ 3
{8}
35 км н/о +18.8 +11.1 61 +20 +20 1019.8 1012.1 +14.9 +20.6 0
19 16.06 ЮЗ 2 45 км н/о +17.8 +11.8 68 +19 +19 1019.9 1012.2
20 16.06 ЮЗ 1 45 км н/о +15.1 +10.9 76 +16 +16 1020.1 1012.3
21 16.06 Ю 1
{3}
45 км н/о +13.5 +10.7 83 +14 +14 1020.6 1012.8 0
22 16.06 ЮЗ 1 40 км н/о +12.2 +9.8 85 +12 +12 1020.8 1012.9
23 16.06 ЮЗ 2 30 км н/о +11.9 +9.8 87 +11 +11 1020.7 1012.8
00 17.06 ЮЗ 1
{4}
19 км н/о +11.3 +10.0 92 +11 +11 1020.5 1012.6 0
01 17.06 ЮЗ 1 18 км н/о +10.9 +9.8 93 +10 +10 1020.5 1012.6
02 17.06 Ю 1 16 км н/о +10.6 +9.7 94 +10 +10 1020.2 1012.3 0.2
03 17.06 ЮЗ 1
{4}
15 км н/о +10.5 +9.7 95 +10 +10 1020.1 1012.2 0.2 0
04 17.06 ЮЗ 1 12 км н/о +10.0 +9.2 95 +9 +9 1020.0 1012.1
05 17.06 ЮЗ 1 12 км н/о +10.7 +10.2 97 +11 +11 1020.1 1012.2
06 17.06 ЮЗ 1
{3}
19 км н/о +12.9 +11.3 90 +13 +13 1020.0 1012.2 +9.9 +18.8 0.2 0
07 17.06 ЮЗ 1 19 км н/о +15.5 +10.9 74 +16 +16 1020.1 1012.3
08 17.06 ЮЗ 1 19 км н/о +17.3 +10.4 64 +19 +19 1020.0 1012.3
09 17.06 ЮВ 1
{5}
19 км н/о +18.6 +10.7 60 +21 +21 комфорт 1019.5 1011.8 0
10 17.06 ЮЗ 1 19 км н/о +19.5 +10.2 55 +22 +22 комфорт 1019.2 1011.5
11 17.06 С 2 19 км 9/9 1170 м
[]
+18.6 +11.2 62 +20 +21 1019.0 1011.3
12 17.06 С 2
{7}
35 км 10/10 1000 м
[]
+18.2 +10.8 62 +19 +19 1018.8 1011.1 0
13 17.06 С 2 35 км н/о +19.2 +11.2 60 +21 +21 комфорт 1018.6 1010.9
14 17.06 С 2 35 км н/о +19.3 +11.3 60 +21 +21 комфорт 1018.1 1010.4
15 17.06 СВ 2
{7}
19 км н/о +18.8 +11.4 62 +20 +20 1017.7 1010.0 0
16 17.06 С 5
{6}
27 км н/о +18.7 +11.7 64 +19 +19 1017.3 1009.6
17 17.06 С 2 35 км 9/9
[]
+17.5 +11.5 68 +18 +18 1017.0 1009.3
18 17.06 С 2
{6}
35 км н/о +17.3 +11.8 70 +18 +18 1016.7 1009.0 +12.8 +20.0 0
19 17.06 СВ 2 40 км н/о +17.0 +11.0 68 +18 +18 1016.5 1008.8
20 17.06 СВ 2 45 км н/о +15.2 +11.2 77 +15 +15 1016.5 1008.8
21 17.06 С 2
{5}
40 км н/о +14.3 +11.1 81 +14 +14 1017.0 1009.2 0
22 17.06 С 2 35 км н/о +14.3 +11.1 81 +14 +14 1016.8 1009.0
23 17.06 С 1 26 км н/о +14.0 +12.4 90 +14 +14 1016.4 1008.6
00 18.06 СВ 1
{4}
22 км н/о +14.6 +13.0 90 +15 +15 1015.7 1007.9 0
01 18.06 СВ 1 24 км 10/10
[]
+14.9 +12.8 87 +15 +15 1015.0 1007.3
02 18.06 СВ 2 26 км 10/10 2000 м
[]
+14.6 +12.5 87 +15 +15 1014.3 1006.6
03 18.06 СЗ 1
{5}
20 км 10/0 2000 м
[]
+14.5 +12.7 89 +16 +16 1014.4 1006.7 0
04 18.06 СВ 2 22 км 9/9
[]
+14.4 +12.4 88 +14 +14 1013.5 1005.8
05 18.06 СВ 1 25 км 10/10 2000 м
[]
+14.5 +12.4 87 +15 +15 1013.4 1005.7
06 18.06 С 3
{7}
15 км слаб. дождь 10/10 1000 м
[]
+14.7 +13.2 91 +14 +15 1013.1 1005.4 +13.6 +17.7 0.2 0
07 18.06 С 2 19 км 9/9 2000 м
[]
+15.1 +13.1 88 +15 +16 1013.0 1005.3 0.0
08 18.06 СВ 2 19 км 9/9
[]
+16.0 +13.3 84 +16 +17 1012.1 1004.4
09 18.06 СВ 2
{8}
27 км 10/0
[]
+16.2 +12.7 80 +16 +16 1011.7 1004.0 0.0 0
10 18.06 ЮЗ 2 17 км слаб. дождь 10/3 1080 м
[]
+15.7 +13.7 88 +16 +21 1013.8 1006.1 0.0
11 18.06 СВ 5
{9}
7000 м слаб. дождь 10/10 600 м
[]
+15.2 +14.2 94 +14 +14 1010.8 1003.1 3
12 18.06 С 2
{7}
16 км 9/9 200 м
[]
+17.0 +15.3 90 +18 +24 1010.8 1003.2 3 0
13 18.06 СВ 4
{6}
21 км 10/0
[]
+18.4 +15.5 83 +19 +25 1010.5 1002.9
14 18.06 СВ 2 19 км н/о +20.4 +15.4 73 +24 +24 комфорт 1009.8 1002.3
15 18.06 С 2
{7}
29 км 9/0
[]
+20.8 +16.0 74 +25 +26 комфорт 1009.6 1002.1 0
16 18.06 С 3 19 км н/о +20.0 +16.4 80 +23 +23 комфорт 1009.7 1002.1
17 18.06 С 3 18 км н/о +18.9 +15.4 80 +20 +20 1009.5 1001.9
18 18.06 С 3
{8}
19 км н/о +17.5 +14.6 83 +18 +18 1009.1 1001.5 +14.7 +21.5 0
19 18.06 С 2 22 км 10/10
[]
+17.4 +14.5 83 +18 +18 1008.7 1001.1
20 18.06 С 2 15 км н/о +15.7 +13.9 89 +16 +16 1008.9 1001.2
21 18.06 СЗ 1
{4}
10 км н/о +14.5 +13.2 92 +15 +15 1009.2 1001.5 0
22 18.06 СЗ 1 8000 м н/о +14.1 +13.3 95 +14 +14 1008.8 1001.1
23 18.06 СЗ 2 8000 м н/о +14.4 +13.4 94 +14 +14 1008.8 1001.1
00 19.06 СЗ 1
{5}
10 км 9/9 1000 м
[]
+14.3 +13.3 94 +15 +15 1008.0 1000.3 0
01 19.06 В 1 12 км 10/10 1500 м
[]
+14.9 +13.6 92 +15 +15 1008.0 1000.3
02 19.06 Ю 1 8000 м 9/9 1500 м
[]
+14.4 +13.4 94 +15 +15 1007.9 1000.2
03 19.06 З 3
{9}
5000 м 10/10 100 м
[]
+14.6 +14.0 96 +14 +14 1008.4 1000.7 0
04 19.06 С 2 13 км слаб. дождь 10/10 1500 м
[]
+15.5 +14.5 94 +16 +16 1007.6 999.9 2
05 19.06 СЗ 1 5000 м слаб. дождь 10/10 90 м
[]
+14.4 +13.8 96 +15 +15 1008.1 1000.4 0.2
06 19.06 З 1
{6}
5000 м 10/10 50 м
[]
+14.7 +14.2 97 +16 +16 1008.5 1000.8 +14.1 +17.5 2 0
07 19.06 З 1 8000 м 10/10 120 м
[]
+14.9 +14.3 96 +15 +15 1008.9 1001.2
08 19.06 З 2 7000 м слаб. морось 10/10 180 м
[]
+15.2 +14.1 93 +15 +15 1009.1 1001.4 0.0
09 19.06 З 2
{6}
7000 м 10/10 100 м
[]
+15.1 +14.1 94 +15 +15 1009.3 1001.6 0.0 0
10 19.06 СЗ 2 3700 м слаб. морось 10/10 90 м
[]
+15.1 +14.5 96 +15 +15 1009.8 1002.1 0.2
11 19.06 СЗ 2 6000 м 10/10 150 м
[]
+15.5 +14.5 94 +15 +15 1010.2 1002.5 0.0
12 19.06 З 2
{7}
7000 м 10/10 200 м
[]
+17.7 +15.9 89 +18 +18 1010.5 1002.9 0.2 0
13 19.06 СЗ 3 9000 м 10/4 360 м
[]
+18.4 +15.3 82 +19 +24 1010.8 1003.2
14 19.06 СЗ 2 11 км 9/3 420 м
[]
+18.9 +15.2 79 +21 +27 комфорт 1010.9 1003.3
15 19.06 СЗ 2
{7}
16 км 10/10 1500 м
[]
+17.1 +14.0 82 +17 +17 1011.1 1003.5 0
16 19.06 СЗ 3 9000 м 10/9 210 м
[]
+15.1 +13.6 91 +14 +15 1011.5 1003.8 0.0
17 19.06 СЗ 3 30 км 10/10 240 м
[]
+14.5 +12.9 90 +13 +13 1011.9 1004.2 0.2
18 19.06 СЗ 3
{11}
35 км 10/10 300 м
[]
+14.5 +12.4 87 +14 +14 1012.2 1004.5 +14.4 +19.1 0.2 0
19 19.06 СЗ 3 45 км 10/5 1440 м
[]
+14.3 +11.8 85 +14 +14 1012.6 1004.9
20 19.06 СЗ 2 35 км 10/10 1500 м
[]
+14.0 +11.3 84 +13 +13 1013.2 1005.4
21 19.06 СЗ 2
{7}
35 км 10/0 2000 м
[]
+13.8 +11.0 83 +13 +13 1013.8 1006.0 0
22 19.06 СЗ 2 28 км 10/3 400 м
[]
+13.8 +11.7 87 +13 +13 1014.0 1006.2
23 19.06 З 3 23 км 10/9 400 м
[]
+13.7 +11.6 87 +13 +13 1014.4 1006.6
00 20.06 З 3
{9}
22 км 10/10 300 м
[]
+13.3 +11.2 87 +12 +12 1014.7 1006.9 0
01 20.06 З 3 24 км 10/10 450 м
[]
+13.0 +10.9 87 +12 +12 1014.7 1006.9
02 20.06 З 2 24 км 10/10 420 м
[]
+12.4 +10.6 89 +11 +11 1014.8 1007.0
03 20.06 З 1
{5}
22 км 10/10 300 м
[]
+11.7 +10.3 91 +11 +11 1015.1 1007.3 0
04 20.06 ЮЗ 1 19 км 9/9 480 м
[]
+10.8 +9.9 94 +10 +10 1015.4 1007.5
05 20.06 ЮЗ 2 11 км 9/9 400 м
[]
+10.5 +9.7 95 +9 +9 1015.8 1007.9
06 20.06 З 2
{4}
10 км н/о +11.9 +10.6 92 +11 +11 1016.2 1008.4 +10.4 +14.5 0
07 20.06 З 2 11 км н/о +14.0 +11.3 84 +14 +14 1016.5 1008.7
08 20.06 З 3 45 км 8/8 500 м
[]
+15.6 +11.4 76 +15 +17 1016.6 1008.9
09 20.06 СЗ 3
{8}
45 км 8/8 600 м
[]
+16.1 +10.4 69 +16 +18 1016.9 1009.2 0
10 20.06 СЗ 2 40 км н/о +16.9 +10.7 67 +17 +17 1017.0 1009.3
11 20.06 СЗ 2 60 км н/о +17.8 +9.9 60 +18 +18 1017.2 1009.5
12 20.06 С 2
{8}
55 км 10/0 2000 м
[]
+16.3 +10.6 69 +16 +16 1017.6 1009.9 0
13 20.06 С 2 60 км 10/1 630 м
[]
+15.5 +12.1 80 +15 +23 1017.8 1010.1
15 20.06 С 2
{6}
45 км 10/10 1500 м
[]
+16.4 +10.5 68 +17 +17 1018.0 1010.3 0
16 20.06 СЗ 2 55 км 10/10
[]
+16.3 +9.9 66 +16 +16 1018.1 1010.4
17 20.06 С 3 45 км 10/1 720 м
[]
+16.4 +10.9 70 +16 +18 1018.3 1010.6
18 20.06 СЗ 2
{7}
35 км 10/10 1500 м
[]
+14.9 +10.7 76 +15 +15 1018.5 1010.7 +11.8 +18.0 0
19 20.06 СЗ 2 45 км 10/10 1500 м
[]
+15.0 +10.0 72 +15 +15 1018.7 1010.9
20 20.06 СЗ 2 40 км 9/9 1500 м
[]
+13.7 +10.7 82 +13 +13 1019.0 1011.2

 

Местоположение метеостанции Динар (Франция): широта 48.58 долгота -2.07 высота над уровнем моря 59 м.

В архиве по умолчанию представлена погода в Динаре за последнюю неделю. Архивные данные за месяц целиком и за предыдущие месяцы, начиная с января 2011 года, Вы можете получить, выбрав интересующий диапазон дат из раскрывающегося списка и нажав кнопку "Ввод!".


*Определитесь, кто Вы:
робот инопланетянин человек

Внимание! Время в таблицах - всемирное. Для получения местного времени необходимо прибавить поправку, которая равна 1 ч.

Смотрите также архив погоды в соседних городах и на ближайших метеорологических станциях:

Погода на Пуэнт-дю-Оке (Франция) (43 км)
Погода в Сен-Бриё аэропорту (Франция) (58 км)
Погода в Ренне (Франция) (62 км)
Погода в Аэропорту Джерси (Великобритания) (72 км)
Погода в Картере (Франция) (90 км)
Погода в Аэропорту Гернси (Великобритания) (102 км)
Погода в Ланьоне (Франция) (105 км)
Погода в Перрос-Гиреке (Франция) (106 км)
Погода в Лавале (Франция) (116 км)
Погода в Вигите ду Аумет (Франция) (126 км)

Пояснения к столбцам:

Ветер - указаны скорость ветра в м/с - средняя за 10 мин, порывы в срок и между сроками (в фигурных скобках) и направление, откуда дует ветер: С - северный, СВ - северо-восточный, В - восточный, ЮВ - юго-восточный, Ю - южный, ЮЗ - юго-западный, З - западный, СЗ - северо-западный.
Видимость - горизонтальная дальность видимости в метрах или километрах. При видимости от 1 до 10 км при отсутствии осадков обычно наблюдается дымка, при ухудшении видимости до 1 км и менее - туман. В сухую погоду видимость может ухудшаться дымом, пылью или мглою.
Явления - указаны атмосферные явления, наблюдавшиеся в срок или в последний час перед сроком; фигурными скобками обозначены явления, наблюдавшиеся между сроками (за 1-3 часа до срока); квадратными скобками обозначены град или гололедные отложения с указанием их диаметра в мм.
Облачность - указаны через наклонную черту общая и нижняя облачность в баллах и высота нижней границы облаков в метрах; квадратными скобками обозначены формы облаков: Ci - перистые, Cs - перисто-слоистые, Cc - перисто-кучевые, Ac - высококучевые, As - высокослоистые, Sc - слоисто-кучевые, Ns - слоисто-дождевые, Cu - кучевые, Cb - кучево-дождевые. Подробнее классификацию облаков см. в Атласе облаков (PDF).
T - Температура воздуха - температура, измеренная на высоте 2 м над землей.
Td - Температура точки росы - температура, при понижении до которой содержащийся в воздухе водяной пар достигнет насыщения.
f - Относительная влажность воздуха - влажноcть воздуха, измеренная на высоте 2 м над землей.
Te - Эффективная температура - температура, которую ощущает одетый по сезону человек в тени. Характеристика душности погоды. При расчете учитывается влияние влажности воздуха и скорости ветра на теплоощущения человека.
Tes - Эффективная температура на солнце - температура, которую ощущает человек, с поправкой на солнечный нагрев. Характеристика знойности погоды. Зависит от высоты солнца над горизонтом, облачности и скорости ветра. Ночью, в пасмурную погоду, а также при ветре 12 м/с и более поправка равна нулю.
P - Атмосферное давление - приведенное к уровню моря атмосферное давление.
Po - Атмосферное давление - измеренное на уровне метеостанции атмосферное давление.
Tmin - Минимальная температура - минимум температуры воздуха на высоте 2 м над землей.
Tmax - Максимальная температура - максимум температуры воздуха на высоте 2 м над землей.
R - Количество осадков - Количество выпавших осадков за период времени, мм. При наведении курсора мыши на число - период времени, за который выпало указанное количество осадков.
R24 - Количество осадков - Количество выпавших осадков за 24 часа, мм.
S - Снежный покров - Высота снежного покрова, см. При наведении курсора мыши на число - состояние снежного покрова и степень покрытия местности в баллах.